Location: Grambois
(43.7619°N, 5.5873°E)
Time: 20:52:09
(UTC+00:00)

CZ-4B R/B - Pass Details

Date: 07 June 2020
Orbit: 392 x 463 km, 97.6° (Epoch: 09 July)

Event Time Altitude Azimuth Distance (km) Brightness Sun altitude
Rises 03:11:46 0° 147° (SSE) 2,293 4.9 -7.2°
Reaches altitude 10° 03:13:48 10° 137° (SE) 1,448 4.0 -6.9°
Maximum altitude 03:16:37 33° 71° (ENE) 709 3.2 -6.5°
Drops below altitude 10° 03:19:30 10° 6° (N) 1,487 4.8 -6.1°
Sets 03:21:38 0° 357° (N) 2,367 5.6 -5.8°
